TimePDT,TemperatureF,Dew PointF,Humidity,Sea Level PressureIn,VisibilityMPH,Wind Direction,Wind SpeedMPH,Gust SpeedMPH,PrecipitationIn,Events,Conditions,WindDirDegrees,DateUTC
12:53 AM,53.1,46.9,80,30.14,10.0,WNW,9.2,-,N/A,,Clear,300,2013-05-10 07:53:00
1:53 AM,52.0,46.9,83,30.13,10.0,NW,9.2,-,N/A,,Clear,310,2013-05-10 08:53:00
2:53 AM,51.1,46.9,86,30.13,10.0,NW,6.9,-,N/A,,Clear,310,2013-05-10 09:53:00
3:53 AM,50.0,46.9,89,30.14,10.0,WNW,5.8,-,N/A,,Clear,300,2013-05-10 10:53:00
6:10 AM,48.2,46.4,93,30.15,8.0,Calm,Calm,-,N/A,,Mostly Cloudy,0,2013-05-10 13:10:00
6:53 AM,50.0,48.0,93,30.16,6.0,NNW,5.8,-,N/A,,Overcast,340,2013-05-10 13:53:00
7:53 AM,51.1,48.0,89,30.17,8.0,NNW,3.5,-,N/A,,Overcast,330,2013-05-10 14:53:00
8:13 AM,53.6,48.2,82,30.18,10.0,NNW,4.6,-,N/A,,Overcast,340,2013-05-10 15:13:00
8:35 AM,53.6,48.2,82,30.17,10.0,Variable,3.5,-,N/A,,Scattered Clouds,0,2013-05-10 15:35:00
8:53 AM,55.9,48.9,77,30.17,10.0,Calm,Calm,-,N/A,,Clear,0,2013-05-10 15:53:00
10:53 AM,70.0,48.9,47,30.14,10.0,NNW,4.6,-,N/A,,Clear,340,2013-05-10 17:53:00
11:53 AM,75.9,48.9,38,30.12,10.0,Variable,4.6,-,N/A,,Clear,0,2013-05-10 18:53:00
12:53 PM,82.0,48.9,31,30.10,10.0,Variable,5.8,-,N/A,,Clear,0,2013-05-10 19:53:00
1:53 PM,84.9,48.9,29,30.07,10.0,Calm,Calm,-,N/A,,Clear,0,2013-05-10 20:53:00
2:53 PM,89.1,48.9,25,30.06,10.0,Calm,Calm,-,N/A,,Clear,0,2013-05-10 21:53:00
3:53 PM,90.0,46.9,23,30.03,10.0,Variable,4.6,-,N/A,,Clear,0,2013-05-10 22:53:00
4:53 PM,90.0,48.9,24,30.01,10.0,SW,11.5,-,N/A,,Clear,220,2013-05-10 23:53:00
5:53 PM,88.0,48.9,26,30.01,10.0,WSW,9.2,-,N/A,,Clear,240,2013-05-11 00:53:00
6:53 PM,82.9,50.0,32,30.03,10.0,NNW,13.8,-,N/A,,Clear,330,2013-05-11 01:53:00
7:53 PM,77.0,50.0,39,30.05,10.0,WNW,11.5,-,N/A,,Clear,290,2013-05-11 02:53:00
8:53 PM,72.0,51.1,48,30.08,10.0,NW,12.7,-,N/A,,Clear,310,2013-05-11 03:53:00
9:53 PM,68.0,51.1,55,30.10,10.0,WNW,9.2,-,N/A,,Clear,300,2013-05-11 04:53:00
10:53 PM,63.0,51.1,65,30.11,10.0,NW,13.8,-,N/A,,Clear,320,2013-05-11 05:53:00
11:53 PM,61.0,50.0,67,30.12,10.0,NNW,5.8,-,N/A,,Clear,340,2013-05-11 06:53:00